Location: Krakow
(50.0830°N, 19.9170°E)
Time: 05:36:37
(UTC+02:00)

A-11 Canister half - Pass Details

Date: 29 May 2024
Orbit: 1515 x 1685 km, 47.2° (Epoch: 14 June)

Event Time Altitude Azimuth Distance (km) Brightness Sun altitude
Exits shadow 22:13:30 10° 123° (ESE) 3,796 10.5 -11.3°
Maximum altitude 22:13:41 10° 122° (ESE) 3,794 10.5 -11.4°
Drops below altitude 10° 22:14:25 10° 118° (ESE) 3,797 10.5 -11.4°
Sets 22:22:07 0° 78° (ENE) 4,735 11.4 -12.1°
